Change the Weather History Date:

Thursday, December 6, 2012

  Actual Average Record
Temperature  
Mean Temperature 64 °F -  
Max Temperature 75 °F 68 °F 83 °F (1951)
Min Temperature 53 °F 46 °F 21 °F (1950)
Degree Days  
Heating Degree Days 1    
Growing Degree Days 14 (Base 50)    
Moisture  
Dew Point 57 °F    
Average Humidity 93    
Maximum Humidity 100    
Minimum Humidity 55    
Precipitation  
Precipitation 0.01 in - - ()
Sea Level Pressure  
Sea Level Pressure 30.00 in    
Wind  
Wind Speed 2 mph (East)    
Max Wind Speed 8 mph    
Max Gust Speed -    
Visibility 4 miles    
Events Fog    
Averages and records for this station are not official NWS values.
T = Trace of Precipitation, MM = Missing Value Source: NWS Daily Summary

Daily Weather History Graph

Daily Weather History Graph

Search for Another Location

Airport or City:

Trip Planner

Search our weather history database for the weather conditions in past years. The results will help you decide how hot, cold, wet, or windy it might be!

Date:

Astronomy

Dec. 06, 2012 Rise Set
Actual Time 7:04 AM CST 5:23 PM CST
Civil Twilight 6:38 AM CST 5:49 PM CST
Nautical Twilight 6:08 AM CST 6:19 PM CST
Astronomical Twilight 5:39 AM CST 6:48 PM CST
Moon No Moon Rise 12:23 PM CST
Length of Visible Light 11h 11m
Length of Day
10h 19m
Waning Gibbous, 49% of the Moon is Illuminated
Dec 6
Waning Gibbous
Dec 13
New
Dec 19
First Quarter
Dec 28
Full
Jan 4
Last Quarter

Hourly Weather History & Observations

Time (CST) Temp. Dew Point Humidity Pressure Visibility Wind Dir Wind Speed Gust Speed Precip Events Conditions
12:02 AM 53.6 °F 53.6 °F 100% 30.05 in 0.2 mi NW 3.5 mph - N/A Fog Fog
12:05 AM 53.6 °F 53.6 °F 100% 30.05 in 0.5 mi Calm Calm - N/A Fog Fog
12:09 AM 53.6 °F 53.6 °F 100% 30.05 in 0.5 mi Calm Calm - N/A Fog Fog
12:29 AM 55.4 °F 55.4 °F 100% 30.05 in 0.8 mi Calm Calm - N/A   Overcast
12:36 AM 55.4 °F 55.4 °F 100% 30.05 in 0.5 mi Calm Calm - N/A Fog Fog
12:39 AM 55.4 °F 55.4 °F 100% 30.04 in 0.2 mi Calm Calm - N/A Fog Fog
12:53 AM 55.0 °F 55.0 °F 100% 30.07 in 0.2 mi Calm Calm - N/A Fog Fog
1:04 AM 55.4 °F 55.4 °F 100% 30.03 in 0.5 mi Calm Calm - N/A Fog Fog
1:10 AM 57.2 °F 55.4 °F 94% 30.04 in 1.0 mi Calm Calm - N/A   Overcast
1:14 AM 57.2 °F 55.4 °F 94% 30.04 in 3.0 mi Calm Calm - N/A   Overcast
2:36 AM 57.2 °F 55.4 °F 94% 30.02 in 2.5 mi Calm Calm - N/A   Scattered Clouds
2:46 AM 57.2 °F 55.4 °F 94% 30.03 in 1.2 mi Calm Calm - N/A   Scattered Clouds
2:53 AM 55.9 °F 55.9 °F 100% 30.05 in 1.0 mi NNE 3.5 mph - N/A   Partly Cloudy
3:07 AM 55.4 °F 55.4 °F 100% 30.03 in 3.0 mi Calm Calm - N/A   Scattered Clouds
3:19 AM 57.2 °F 55.4 °F 94% 30.02 in 2.0 mi Calm Calm - N/A   Scattered Clouds
3:26 AM 57.2 °F 55.4 °F 94% 30.01 in 1.5 mi Calm Calm - N/A   Mostly Cloudy
3:33 AM 57.2 °F 55.4 °F 94% 30.01 in 0.5 mi Calm Calm - N/A Fog Fog
3:44 AM 57.2 °F 55.4 °F 94% 30.01 in 1.0 mi ENE 3.5 mph - N/A   Mostly Cloudy
3:53 AM 55.0 °F 55.0 °F 100% 30.03 in 1.5 mi Calm Calm - N/A   Scattered Clouds
3:57 AM 53.6 °F 53.6 °F 100% 30.01 in 0.5 mi Calm Calm - N/A Fog Fog
4:01 AM 55.4 °F 55.4 °F 100% 30.01 in 0.2 mi Calm Calm - N/A Fog Fog
4:29 AM 55.4 °F 55.4 °F 100% 29.99 in 0.5 mi Calm Calm - N/A Fog Fog
4:34 AM 55.4 °F 55.4 °F 100% 29.99 in 0.2 mi Calm Calm - N/A Fog Fog
4:53 AM 54.0 °F 54.0 °F 100% 30.01 in 0.2 mi Calm Calm - N/A Fog Fog
5:38 AM 55.4 °F 55.4 °F 100% 29.99 in 0.2 mi NE 3.5 mph - N/A Fog Fog
5:50 AM 57.2 °F 55.4 °F 94% 29.99 in 0.8 mi NE 3.5 mph - 0.01 in   Overcast
5:53 AM 57.0 °F 55.9 °F 96% 30.01 in 1.0 mi Calm Calm - 0.01 in   Overcast
6:00 AM 57.2 °F 57.2 °F 100% 29.99 in 2.0 mi Calm Calm - N/A   Overcast
6:11 AM 57.2 °F 57.2 °F 100% 29.99 in 5.0 mi Calm Calm - N/A   Overcast
6:42 AM 57.2 °F 57.2 °F 100% 30.00 in 6.0 mi Calm Calm - N/A   Overcast
6:53 AM 57.9 °F 57.9 °F 100% 30.02 in 6.0 mi Calm Calm - N/A   Overcast
7:09 AM 59.0 °F 57.2 °F 94% 29.99 in 4.0 mi East 3.5 mph - N/A   Mostly Cloudy
7:19 AM 59.0 °F 57.2 °F 94% 30.00 in 4.0 mi Calm Calm - N/A   Scattered Clouds
7:53 AM 60.1 °F 59.0 °F 96% 30.03 in 5.0 mi ENE 4.6 mph - N/A   Clear
8:38 AM 62.6 °F 60.8 °F 94% 30.01 in 7.0 mi ENE 5.8 mph - N/A   Partly Cloudy
8:53 AM 63.0 °F 60.1 °F 90% 30.04 in 8.0 mi East 6.9 mph - N/A   Partly Cloudy
9:04 AM 62.6 °F 60.8 °F 94% 30.02 in 8.0 mi East 5.8 mph - N/A   Mostly Cloudy
9:53 AM 63.0 °F 60.1 °F 90% 30.05 in 8.0 mi ESE 5.8 mph - N/A   Mostly Cloudy
10:53 AM 66.0 °F 60.1 °F 81% 30.04 in 10.0 mi SE 5.8 mph - N/A   Overcast
11:41 AM 66.2 °F 59.0 °F 78% 29.99 in 10.0 mi Variable 3.5 mph - N/A   Mostly Cloudy
11:53 AM 68.0 °F 59.0 °F 73% 30.00 in 10.0 mi Calm Calm - N/A   Overcast
12:53 PM 70.0 °F 59.0 °F 68% 29.96 in 10.0 mi Calm Calm - N/A   Mostly Cloudy
1:37 PM 71.6 °F 57.2 °F 60% 29.91 in 10.0 mi SE 4.6 mph - N/A   Mostly Cloudy
1:53 PM 72.0 °F 57.9 °F 61% 29.93 in 10.0 mi Calm Calm - N/A   Mostly Cloudy
2:53 PM 75.0 °F 57.9 °F 55% 29.92 in 10.0 mi SSW 8.1 mph - N/A   Partly Cloudy
8:53 PM 62.1 °F 60.1 °F 93% 29.93 in 8.0 mi ESE 5.8 mph - N/A   Clear
9:53 PM 62.1 °F 60.1 °F 93% 29.94 in 7.0 mi SE 5.8 mph - N/A   Clear
10:18 PM 60.8 °F 60.8 °F 100% 29.91 in 6.0 mi ESE 3.5 mph - N/A   Partly Cloudy
10:53 PM 60.1 °F 59.0 °F 96% 29.93 in 5.0 mi Calm Calm - N/A   Partly Cloudy
11:53 PM 59.0 °F 57.9 °F 96% 29.92 in 3.0 mi SE 4.6 mph - N/A   Scattered Clouds